Orbital Elements
Epoch 2009 July 28.0 TT = JDT 2455040.5
T 2009 Aug. 6.82073 TT MPCW
q 1.9497940 (2000.0) P Q
n 0.10771688 Peri. 13.09169 +0.49495619 -0.85881793
a 4.3746859 Node 47.41972 +0.78018013 +0.37231361
e 0.5543008 Incl. 10.33492 +0.38254062 +0.35187261
P 9.15
From 150 observations 2010 Jan. 6-2018 Aug. 12, mean residual 0".6.
|